User: anonymous   Login
Location: Unspecified
(0.0000°N, 0.0000°E)
Time: 01:52:15
(UTC+00:00)
Language:

NAVSTAR 64 (USA 206) - Orbit

View from above orbital plane
View from above orbital plane
View from above satellite
View from above satellite

Ground track
Ground track

The orbit data is extracted from the following two-line orbital elements,

1 35752U 09043A   14302.62373825  .00000006  00000-0  00000+0 0  9472
2 35752 054.2513 198.4998 0038654 018.5804 280.8464 02.00558488 38142
Epoch (UTC): 29 October 2014 14:58:10
Eccentricity: 0.0038654
inclination: 54.2513°
perigee height: 20080 km
apogee height: 20285 km
right ascension of ascending node: 198.4998°
argument of perigee: 18.5804°
revolutions per day: 2.00558488
mean anomaly at epoch: 280.8464°
orbit number at epoch: 3814

The dashed part of the orbit path shows where the satellite is in the earth's shadow,  

DLR